Location: Auttagershofen
(48.1940°N, 10.0237°E)
Time: 23:56:54
(UTC+00:00)

CZ-4C R/B - Pass Details

Date: 18 January 2026
Orbit: 482 x 1496 km, 63.4° (Epoch: 16 February)

Event Time Altitude Azimuth Distance (km) Brightness Sun altitude
Exits shadow 05:59:58 - 323° (NW) 2,928 4.5 -10.4°
Reaches altitude 10° 06:00:37 10° 325° (NW) 2,719 4.4 -10.3°
Maximum altitude 06:06:56 46° 38° (NE) 1,510 3.7 -9.3°
Drops below altitude 10° 06:14:49 10° 110° (ESE) 3,397 7.1 -8.1°
Sets 06:18:08 0° 116° (ESE) 4,474 8.5 -7.6°
